Time,TemperatureF,DewpointF,PressureIn,WindDirection,WindDirectionDegrees,WindSpeedMPH,WindSpeedGustMPH,Humidity,HourlyPrecipIn,Conditions,Clouds,dailyrainin,SoftwareType,DateUTC
2012-11-18 00:00:00,60.6,29.0,29.97,SSE,158,2.0,6.0,30,0.00,,,0.00,WUHU216DAVISVP2,2012-11-18 08:00:00,
2012-11-18 00:30:00,61.0,29.3,29.97,SSE,158,1.0,4.0,30,0.00,,,0.00,WUHU216DAVISVP2,2012-11-18 08:30:00,
2012-11-18 01:00:00,61.9,30.1,29.98,SSE,158,2.0,5.0,30,0.00,,,0.00,WUHU216DAVISVP2,2012-11-18 09:00:00,
2012-11-18 01:30:00,62.4,29.7,29.97,SSE,158,1.0,4.0,29,0.00,,,0.00,WUHU216DAVISVP2,2012-11-18 09:30:00,
2012-11-18 02:00:00,61.2,30.3,29.97,SSE,158,1.0,3.0,31,0.00,,,0.00,WUHU216DAVISVP2,2012-11-18 10:00:00,
2012-11-18 02:30:00,61.7,33.0,29.96,SE,135,1.0,4.0,34,0.00,,,0.00,WUHU216DAVISVP2,2012-11-18 10:30:00,
2012-11-18 03:00:00,60.6,33.5,29.95,SE,135,1.0,4.0,36,0.00,,,0.00,WUHU216DAVISVP2,2012-11-18 11:00:00,
2012-11-18 03:30:00,59.3,33.0,29.95,SE,135,1.0,3.0,37,0.00,,,0.00,WUHU216DAVISVP2,2012-11-18 11:30:00,
2012-11-18 04:00:00,56.7,32.0,29.95,SE,135,0.0,3.0,39,0.00,,,0.00,WUHU216DAVISVP2,2012-11-18 12:00:00,
2012-11-18 04:30:00,55.2,33.1,29.96,SE,135,1.0,3.0,43,0.00,,,0.00,WUHU216DAVISVP2,2012-11-18 12:30:00,
2012-11-18 05:00:00,55.1,34.7,29.96,ESE,113,2.0,4.0,46,0.00,,,0.00,WUHU216DAVISVP2,2012-11-18 13:00:00,
2012-11-18 05:30:00,54.8,35.5,29.97,ESE,113,1.0,4.0,48,0.00,,,0.00,WUHU216DAVISVP2,2012-11-18 13:30:00,
2012-11-18 06:00:00,54.6,35.3,29.98,ESE,113,1.0,3.0,48,0.00,,,0.00,WUHU216DAVISVP2,2012-11-18 14:00:00,
2012-11-18 06:30:00,55.1,35.7,29.99,ESE,113,1.0,3.0,48,0.00,,,0.00,WUHU216DAVISVP2,2012-11-18 14:30:00,
2012-11-18 07:00:00,59.5,37.6,30.00,ESE,113,1.0,3.0,44,0.00,,,0.00,WUHU216DAVISVP2,2012-11-18 15:00:00,
2012-11-18 07:30:00,64.1,39.3,30.00,SE,135,1.0,3.0,40,0.00,,,0.00,WUHU216DAVISVP2,2012-11-18 15:30:00,
2012-11-18 08:00:00,66.9,46.0,30.00,SSE,158,2.0,6.0,47,0.00,,,0.00,WUHU216DAVISVP2,2012-11-18 16:00:00,
2012-11-18 08:30:00,68.3,47.8,30.01,SSE,158,3.0,7.0,48,0.00,,,0.00,WUHU216DAVISVP2,2012-11-18 16:30:00,
2012-11-18 09:00:00,69.9,47.6,30.01,SSW,203,2.0,5.0,45,0.00,,,0.00,WUHU216DAVISVP2,2012-11-18 17:00:00,
2012-11-18 09:30:00,71.1,47.5,30.01,SW,225,2.0,6.0,43,0.00,,,0.00,WUHU216DAVISVP2,2012-11-18 17:30:00,
2012-11-18 10:00:00,73.0,44.5,30.00,SSE,158,2.0,6.0,36,0.00,,,0.00,WUHU216DAVISVP2,2012-11-18 18:00:00,
2012-11-18 10:30:00,74.5,45.8,29.99,SW,225,2.0,6.0,36,0.00,,,0.00,WUHU216DAVISVP2,2012-11-18 18:30:00,
2012-11-18 11:00:00,75.1,45.6,29.97,WSW,248,2.0,6.0,35,0.00,,,0.00,WUHU216DAVISVP2,2012-11-18 19:00:00,
2012-11-18 11:30:00,76.7,45.4,29.96,SW,225,1.0,6.0,33,0.00,,,0.00,WUHU216DAVISVP2,2012-11-18 19:30:00,
2012-11-18 12:00:00,76.4,45.9,29.95,WSW,248,2.0,6.0,34,0.00,,,0.00,WUHU216DAVISVP2,2012-11-18 20:00:00,
2012-11-18 12:30:00,76.2,47.3,29.94,WNW,293,2.0,7.0,36,0.00,,,0.00,WUHU216DAVISVP2,2012-11-18 20:30:00,
2012-11-18 13:00:00,76.6,47.6,29.94,NW,315,2.0,7.0,36,0.00,,,0.00,WUHU216DAVISVP2,2012-11-18 21:00:00,
2012-11-18 13:30:00,76.8,47.1,29.93,WNW,293,2.0,8.0,35,0.00,,,0.00,WUHU216DAVISVP2,2012-11-18 21:30:00,
2012-11-18 14:00:00,76.5,47.6,29.94,WNW,293,2.0,7.0,36,0.00,,,0.00,WUHU216DAVISVP2,2012-11-18 22:00:00,
2012-11-18 14:30:00,76.9,46.4,29.94,West,270,2.0,7.0,34,0.00,,,0.00,WUHU216DAVISVP2,2012-11-18 22:30:00,
2012-11-18 15:00:00,76.3,46.6,29.93,NW,315,1.0,6.0,35,0.00,,,0.00,WUHU216DAVISVP2,2012-11-18 23:00:00,
2012-11-18 15:30:00,75.7,46.1,29.94,NW,315,2.0,7.0,35,0.00,,,0.00,WUHU216DAVISVP2,2012-11-18 23:30:00,
2012-11-18 16:00:00,73.2,46.1,29.94,NW,315,2.0,6.0,38,0.00,,,0.00,WUHU216DAVISVP2,2012-11-19 00:00:00,
2012-11-18 16:30:00,70.8,45.3,29.94,NW,315,2.0,5.0,40,0.00,,,0.00,WUHU216DAVISVP2,2012-11-19 00:30:00,
2012-11-18 17:00:00,67.3,43.4,29.95,NW,315,0.0,2.0,42,0.00,,,0.00,WUHU216DAVISVP2,2012-11-19 01:00:00,
2012-11-18 17:30:00,65.6,43.1,29.96,NW,315,0.0,1.0,44,0.00,,,0.00,WUHU216DAVISVP2,2012-11-19 01:30:00,
2012-11-18 18:00:00,64.3,43.1,29.97,NE,45,0.0,2.0,46,0.00,,,0.00,WUHU216DAVISVP2,2012-11-19 02:00:00,
2012-11-18 18:30:00,63.8,42.0,29.97,NE,45,0.0,3.0,45,0.00,,,0.00,WUHU216DAVISVP2,2012-11-19 02:30:00,
2012-11-18 19:00:00,61.9,42.0,29.97,ESE,113,0.0,2.0,48,0.00,,,0.00,WUHU216DAVISVP2,2012-11-19 03:00:00,
2012-11-18 19:30:00,61.6,41.7,29.98,East,90,0.0,2.0,48,0.00,,,0.00,WUHU216DAVISVP2,2012-11-19 03:30:00,
2012-11-18 20:00:00,61.2,41.9,29.98,ESE,113,1.0,3.0,49,0.00,,,0.00,WUHU216DAVISVP2,2012-11-19 04:00:00,
2012-11-18 20:30:00,59.5,42.3,29.99,ESE,113,0.0,2.0,53,0.00,,,0.00,WUHU216DAVISVP2,2012-11-19 04:30:00,
2012-11-18 21:00:00,58.7,42.6,29.99,ESE,113,1.0,3.0,55,0.00,,,0.00,WUHU216DAVISVP2,2012-11-19 05:00:00,
2012-11-18 21:30:00,56.1,41.5,30.00,SSE,158,0.0,3.0,58,0.00,,,0.00,WUHU216DAVISVP2,2012-11-19 05:30:00,
2012-11-18 22:00:00,56.2,42.1,30.01,South,180,1.0,4.0,59,0.00,,,0.00,WUHU216DAVISVP2,2012-11-19 06:00:00,
2012-11-18 22:30:00,57.1,42.5,30.01,SSE,158,1.0,3.0,58,0.00,,,0.00,WUHU216DAVISVP2,2012-11-19 06:30:00,
2012-11-18 23:00:00,56.7,42.5,30.02,SE,135,1.0,2.0,59,0.00,,,0.00,WUHU216DAVISVP2,2012-11-19 07:00:00,
2012-11-18 23:30:00,55.8,42.5,30.03,SSE,158,1.0,4.0,61,0.00,,,0.00,WUHU216DAVISVP2,2012-11-19 07:30:00,